Vertical_Velocity
0 1 1 1 1 1 -0 -1 -1 -1 -1 -1 -1 -2 -2 -2 -1 0 1 2 2 3 4 3 3 4 5 3 2 2 3 4 3 3 3 4 4 3 3 3 2 2 2 2 1 0 -0 -1 -3 -5 -6 -6 -4 -3 -3 -3 -2 -2 -2 -2 -2 -2 -2 -2 -2 -1 0 1 2
-1 0 1 1 1 2 2 1 0 -0 -1 -1 -1 -1 -1 -2 -2 -1 0 2 3 3 3 2 3 3 4 2 2 3 4 4 4 4 4 4 4 4 4 3 3 3 3 3 3 2 1 1 -0 -2 -4 -5 -3 -3 -4 -5 -3 -3 -3 -4 -3 -3 -2 -3 -3 -2 -2 -2 -0
-2 -1 -0 0 1 1 2 2 2 2 1 0 0 -0 -0 -1 -1 -1 -2 -1 0 1 1 0 1 1 1 0 1 2 3 3 4 4 4 5 5 4 3 4 4 4 4 4 4 3 2 2 1 0 -1 -2 -1 -1 -2 -3 -4 -4 -4 -5 -5 -4 -4 -3 -3 -3 -3 -3 -2
-2 -2 -2 -1 -1 0 1 1 2 2 2 2 2 1 1 1 0 0 -0 -1 -0 -0 -0 0 1 0 -0 -0 0 1 2 3 3 3 2 4 5 5 4 4 5 5 4 4 4 3 2 2 2 2 2 1 0 0 0 -1 -2 -3 -3 -4 -5 -5 -5 -4 -4 -4 -4 -3 -2
-1 -1 -1 -2 -2 -1 -1 0 1 2 2 3 3 3 2 2 2 1 1 1 1 1 1 2 1 0 -0 0 -0 0 1 1 1 1 1 1 2 3 3 4 4 4 4 4 3 3 3 2 2 2 2 3 2 1 1 1 0 -1 -2 -2 -3 -3 -3 -2 -4 -4 -3 -2 -2
-1 -0 -0 -1 -1 -2 -2 -1 -1 0 1 2 2 3 3 2 2 2 2 2 2 2 2 2 1 1 1 1 -0 -0 -0 0 0 0 0 0 1 1 2 3 3 4 4 3 2 3 4 4 3 3 3 3 2 2 2 2 1 0 0 0 -2 -2 -1 -1 -2 -2 -1 -1 -1
-0 -0 -0 -0 -0 -1 -1 -1 -1 -1 -1 0 1 2 2 2 2 2 2 2 2 2 2 2 2 3 3 2 1 0 -0 -1 -1 0 1 1 2 2 2 2 3 4 4 4 3 3 3 4 4 4 4 5 4 3 3 2 1 1 1 1 0 0 1 -1 -0 0 1 0 0
0 -0 -0 -0 -0 -0 -0 -1 -1 -1 -1 -1 -1 -0 0 1 1 1 1 1 1 1 2 3 3 3 3 3 2 2 1 -0 -1 -1 0 2 3 3 3 3 4 4 4 4 4 4 3 2 2 4 7 8 6 5 4 2 1 1 1 1 1 1 1 1 1 2 2 2 2
0 -0 -0 -0 -0 -0 -0 -0 -0 -0 -1 -1 -1 -1 -1 -1 0 1 1 1 1 1 2 2 2 2 3 3 3 3 3 2 1 -0 -1 -1 0 1 2 3 3 3 3 4 4 4 4 3 2 3 5 9 9 8 6 4 3 2 2 3 2 2 1 2 2 2 2 3 3
-0 -0 0 0 -0 -0 0 0 0 0 -0 -1 -1 -1 -1 -1 -1 -0 0 1 2 2 1 1 1 2 2 2 3 3 4 4 3 2 1 -1 -1 -1 -1 0 1 2 3 3 4 4 5 5 3 3 3 6 8 9 10 9 7 6 6 5 3 2 2 2 3 3 3 3 2
-0 -0 0 0 -0 0 0 0 0 0 1 0 -0 -0 -0 -0 -1 -1 -0 0 1 1 1 1 2 1 1 1 2 2 3 3 3 3 3 2 1 0 -0 -1 -0 0 1 2 3 4 5 6 5 4 3 2 4 7 10 12 12 12 12 10 6 3 1 2 3 3 3 3 3
-0 -0 0 0 -0 0 1 1 0 1 1 1 0 0 0 0 -0 -0 -0 0 -0 -0 1 2 2 1 1 1 1 1 1 2 3 3 3 3 3 2 2 1 0 0 0 1 2 2 3 4 5 5 4 1 0 2 5 9 12 13 13 11 7 3 2 3 4 3 3 3 3
0 0 0 -0 -0 0 0 0 0 1 1 1 1 1 1 1 0 1 1 0 -0 -0 0 0 0 1 1 1 1 1 1 1 2 2 2 2 3 3 3 2 2 1 1 0 0 0 1 1 3 4 3 2 0 -1 1 4 7 9 9 7 3 1 1 5 7 6 4 3 3
1 1 0 0 0 0 0 0 -0 0 1 1 0 1 1 1 1 1 1 1 0 0 -0 -1 -0 1 1 2 1 1 1 1 1 1 1 1 2 2 2 2 3 2 2 1 1 -0 -1 -1 0 1 1 1 -0 -1 -1 -0 2 3 4 3 1 -0 1 5 8 9 8 6 5
0 0 0 1 1 0 0 0 -0 0 0 0 0 1 1 1 1 1 1 1 0 0 0 -0 -0 0 1 1 1 1 2 2 1 1 1 1 1 1 2 2 3 3 2 2 2 1 0 -0 -1 -1 -2 -2 -1 -1 -2 -2 -1 -1 0 0 -0 1 3 5 8 11 13 13 11
0 -0 -0 0 0 0 0 0 0 0 0 0 0 0 1 0 0 1 1 1 0 0 1 0 0 0 0 1 1 2 2 2 2 1 1 1 1 1 1 1 2 2 2 3 2 2 1 1 0 -1 -2 -2 -2 -2 -2 -3 -2 -2 -1 -1 -0 2 5 8 8 10 12 15 16
1 0 0 1 0 0 0 0 0 0 1 0 0 0 1 0 -0 0 0 1 1 1 1 0 0 0 0 -0 0 1 2 1 2 2 2 1 1 1 1 1 1 2 2 2 2 2 2 2 1 0 -0 -1 -1 -2 -2 -3 -3 -3 -2 -2 -1 2 6 11 9 9 9 11 13
2 1 1 1 1 1 0 1 1 1 1 1 1 1 1 0 -0 -0 -0 0 1 1 1 0 1 1 0 -0 0 1 1 1 1 2 2 2 2 2 2 2 2 2 2 2 2 2 2 1 1 1 1 0 0 -1 -2 -2 -3 -3 -3 -3 -2 0 4 9 10 8 7 7 8
2 2 2 2 1 1 1 1 1 1 1 1 1 1 1 1 0 -0 -0 -1 0 1 1 0 0 0 0 0 -0 -0 0 0 0 0 1 2 2 2 2 2 3 3 3 2 2 1 1 1 1 1 1 1 1 0 -0 -1 -2 -2 -2 -2 -3 -2 0 3 5 6 6 5 6
0 1 1 1 2 2 1 1 2 2 2 2 2 2 2 1 1 1 0 -1 -0 1 1 0 -0 -0 0 0 0 -0 -1 -0 0 -0 -0 0 1 2 2 3 3 3 3 3 2 2 1 0 0 0 1 1 2 1 1 0 -0 -1 -1 -1 -2 -2 -2 -2 -1 1 2 3 5
-1 -0 -0 0 1 1 1 1 1 2 2 2 2 3 3 3 2 2 1 -0 0 1 1 0 0 0 0 0 0 -0 -1 -0 0 -0 -1 -0 0 0 1 2 3 3 3 3 3 2 2 1 1 1 1 1 1 2 2 2 1 1 0 -0 -1 -1 -1 -2 -2 -2 -1 1 3
-1 -1 -0 -0 -0 -0 -0 -0 0 1 1 1 1 2 2 3 3 2 2 2 1 1 1 1 1 1 0 0 0 -0 -0 0 0 -0 -1 -0 -1 -0 0 1 1 1 2 2 2 2 2 2 2 2 2 2 1 2 2 2 2 2 1 1 0 -0 -1 -1 -1 -1 -1 -1 -0
-1 -1 -0 -0 -0 -1 -1 -1 -1 -0 -0 -0 0 1 1 2 2 2 2 2 2 2 2 1 1 1 0 0 1 1 0 0 -0 -0 0 1 -0 -0 -0 0 0 0 1 1 1 1 2 2 2 2 3 2 2 2 2 2 2 2 2 1 1 0 -0 -0 -0 -1 -1 -1 -1
-0 -0 -0 0 0 -0 -1 -1 -1 -1 -1 -1 -1 -0 -0 0 1 1 2 1 2 2 2 2 1 1 1 1 1 1 1 1 0 0 1 1 0 0 0 0 0 0 -0 -0 -0 0 0 2 2 2 3 3 3 2 2 2 2 2 2 1 1 1 0 0 0 -0 -0 -1 -1
1 1 0 0 0 0 0 0 -0 -0 -1 -1 -0 -0 -0 -0 0 1 1 1 1 2 2 2 1 1 1 1 1 1 1 1 1 1 1 1 0 1 1 1 0 0 -0 -0 -1 -1 -1 1 1 2 2 2 3 3 3 3 2 2 2 2 1 1 1 1 1 0 0 -0 -0
3 2 2 1 1 1 0 0 1 0 -0 -1 -0 -0 -0 -0 0 0 1 0 0 1 1 2 2 2 2 1 1 1 1 1 1 1 1 0 1 1 1 1 1 0 0 -0 -1 -2 -1 0 0 0 1 1 2 2 3 3 2 3 3 2 2 2 1 1 1 1 0 0 0
4 3 3 3 3 2 1 1 2 1 1 1 0 -0 -1 -0 -0 -1 -1 -0 -0 0 0 0 1 1 2 2 1 1 0 0 1 1 1 0 1 1 1 1 1 1 0 -0 -1 -2 -1 -1 -1 -1 -1 -0 0 1 2 2 2 3 3 3 3 3 2 2 1 1 1 0 0
3 3 3 3 3 2 2 3 2 2 2 3 2 1 0 0 -1 -1 -1 -1 -1 -1 -1 -2 -1 1 2 1 0 0 1 1 1 1 0 1 0 0 0 1 1 1 1 0 -1 -1 -1 -1 -1 -1 -1 -1 -1 -0 0 1 1 2 3 3 3 4 3 2 2 2 1 0 0
1 2 2 3 2 2 2 3 2 2 3 4 4 3 3 2 1 0 -0 -1 -1 -2 -3 -3 -1 -0 -1 -3 -1 1 2 1 0 0 1 0 0 -0 -0 0 1 1 1 1 -0 -1 -1 -1 -1 -2 -2 -1 -1 -0 -0 0 0 1 2 3 4 4 4 3 3 3 2 1 1
0 1 1 2 2 2 1 0 0 1 2 2 3 4 5 5 4 3 2 1 -0 -1 -2 -1 -1 -3 -4 -4 -1 -0 -1 -2 -0 1 1 -0 -0 -0 -0 0 0 0 1 1 0 -0 -0 -1 -1 -1 -2 -2 -1 -0 0 0 0 1 1 2 3 4 4 4 4 4 3 2 2
-1 -0 0 1 1 1 0 -1 -1 -1 -1 -1 0 1 3 4 4 4 4 5 3 2 2 2 -2 -4 -4 -1 -0 -3 -5 -4 -1 -1 -1 -1 0 0 0 1 0 -0 0 1 -0 -0 -0 -0 -1 -1 -2 -2 -1 -1 -0 0 1 1 1 1 2 2 3 3 3 3 3 3 2
-2 -1 -0 0 -0 -0 -0 -0 -1 -2 -2 -1 -2 -1 -1 -0 0 2 3 4 4 5 5 4 2 0 0 1 -1 -3 -4 -3 -3 -3 -3 -1 -1 0 1 1 0 -0 0 1 -0 -1 -0 -0 -1 -1 -2 -2 -2 -2 -1 0 1 1 1 1 2 2 2 2 2 3 3 3 2
-2 -1 -1 -1 -1 -1 -0 -0 -1 -2 -1 -1 -2 -2 -2 -2 -2 -2 -2 -2 0 2 4 5 6 5 3 2 -0 -2 -2 -2 -3 -3 -3 -2 -2 -1 0 1 0 1 1 0 -1 -1 -0 0 -0 -1 -1 -2 -2 -2 -2 -0 -0 0 1 1 1 1 2 2 2 2 2 2 2
-1 -1 -2 -2 -1 -1 -1 -1 -1 -1 -1 -1 -2 -2 -1 -1 -2 -3 -4 -4 -3 -2 -1 1 4 5 5 5 3 0 -2 -2 -2 -3 -3 -3 -3 -2 -1 -0 1 1 1 -0 -1 -1 0 0 -0 -1 -1 -2 -3 -3 -2 -1 -1 0 1 1 1 2 2 2 1 2 2 2 2
-2 -2 -3 -3 -2 -1 -2 -2 -2 -1 -1 -1 -2 -1 -1 -1 -2 -3 -3 -3 -2 -3 -5 -5 -2 1 3 4 5 3 1 -1 -1 -2 -2 -2 -2 -2 -3 -2 1 2 1 -1 -2 -1 0 -0 -0 -0 -1 -2 -2 -2 -2 -2 -1 -0 1 1 2 2 2 2 2 2 2 3 2
-3 -3 -3 -3 -2 -2 -2 -2 -2 -2 -2 -2 -1 -1 -1 -1 -2 -2 -1 -1 -2 -4 -5 -4 -2 -2 -3 -1 3 4 4 1 0 -1 -1 -1 -1 -3 -3 -2 1 1 1 -1 -2 -1 -1 -1 -1 -1 -1 -2 -2 -2 -2 -2 -2 -1 0 1 2 2 2 2 2 2 2 3 3
-3 -3 -3 -3 -3 -2 -2 -2 -2 -2 -3 -3 -1 -1 -1 -2 -1 -1 -1 -0 -2 -4 -4 -0 -0 -3 -5 -4 -1 1 2 4 2 0 -1 -1 -1 -2 -3 -1 0 1 1 1 -0 -1 -1 -2 -2 -2 -2 -2 -3 -3 -2 -2 -2 -1 -0 1 1 2 3 3 2 2 3 3 3
-3 -4 -4 -4 -3 -3 -2 -1 -1 -2 -2 -2 -1 -1 -2 -1 -1 -1 -1 -0 -2 -3 -3 0 -0 -3 -4 -1 -2 -3 -3 2 3 1 -0 -0 0 -1 -1 -1 -0 1 2 2 1 0 -0 -1 -2 -3 -3 -3 -4 -3 -2 -3 -3 -2 -1 0 1 2 3 3 2 2 3 3 4
-4 -4 -4 -4 -5 -4 -3 -2 -2 -2 -1 -1 -1 -1 -1 -0 -1 -1 -1 0 -1 -3 -3 -1 -2 -2 -1 2 -2 -5 -5 -1 2 2 1 1 1 1 0 -2 -1 1 3 3 1 1 1 1 -0 -1 -3 -4 -5 -4 -3 -3 -4 -3 -2 0 1 2 3 2 2 2 2 3 4
-4 -4 -5 -5 -6 -5 -5 -4 -4 -3 -2 -1 -2 -2 -1 0 -0 -0 -0 0 -2 -3 -2 -1 -2 -1 1 2 -2 -4 -4 -2 0 1 1 1 1 2 1 -2 -1 1 4 3 1 1 2 2 2 1 -1 -2 -4 -4 -4 -4 -5 -4 -3 -0 1 1 1 2 2 2 2 2 4
-3 -4 -5 -6 -6 -6 -6 -6 -5 -4 -3 -2 -3 -3 -2 0 -0 -1 -1 -0 -2 -2 -2 -1 -2 -1 1 1 -2 -2 -2 -1 -1 -1 -0 0 1 2 1 -1 -0 2 3 3 2 2 2 2 2 2 1 0 -2 -3 -3 -4 -4 -4 -3 -0 0 0 -0 -0 1 1 1 2 4
Height
5664 5663 5663 5663 5662 5662 5662 5661 5661 5661 5661 5661 5662 5662 5662 5662 5662 5662 5662 5662 5662 5663 5663 5663 5664 5664 5664 5665 5665 5665 5666 5667 5668 5669 5670 5671 5672 5673 5674 5675 5676 5677 5678 5679 5680 5682 5683 5685 5687 5689 5690 5691 5692 5692 5692 5693 5694 5694 5695 5695 5696 5696 5697 5697 5697 5698 5698 5698 5698
5662 5662 5662 5661 5661 5661 5660 5660 5660 5659 5659 5659 5659 5659 5659 5659 5660 5660 5660 5660 5660 5660 5661 5661 5662 5662 5662 5663 5662 5662 5663 5664 5665 5667 5667 5668 5668 5669 5670 5671 5672 5673 5675 5676 5677 5677 5679 5680 5682 5683 5685 5686 5687 5688 5689 5689 5690 5690 5691 5692 5692 5692 5693 5694 5694 5695 5696 5696 5697
5660 5660 5659 5659 5659 5659 5659 5658 5658 5658 5657 5657 5657 5657 5657 5657 5657 5657 5657 5657 5657 5657 5658 5658 5659 5659 5660 5660 5661 5661 5661 5661 5662 5663 5665 5667 5667 5666 5667 5667 5668 5670 5671 5672 5672 5673 5674 5676 5677 5678 5679 5681 5682 5683 5684 5685 5686 5687 5687 5688 5688 5689 5689 5690 5690 5691 5692 5693 5694
5657 5657 5657 5657 5657 5657 5657 5657 5657 5656 5656 5656 5656 5655 5655 5655 5655 5655 5655 5655 5655 5655 5655 5655 5655 5656 5656 5657 5658 5658 5659 5659 5659 5659 5660 5662 5664 5664 5664 5665 5665 5666 5667 5668 5669 5669 5670 5671 5672 5673 5675 5676 5677 5678 5679 5680 5681 5682 5683 5684 5685 5686 5686 5687 5687 5688 5689 5690 5692
5654 5654 5654 5654 5654 5654 5654 5654 5654 5654 5654 5654 5653 5653 5653 5653 5653 5653 5652 5652 5652 5652 5652 5652 5652 5652 5653 5653 5654 5655 5656 5656 5657 5656 5657 5657 5658 5659 5660 5661 5662 5663 5663 5664 5665 5666 5667 5667 5669 5669 5670 5671 5672 5673 5674 5675 5676 5677 5678 5679 5681 5682 5683 5683 5684 5685 5687 5687 5689
5651 5651 5651 5651 5651 5651 5651 5651 5651 5651 5651 5651 5651 5651 5651 5651 5651 5650 5650 5650 5650 5649 5649 5649 5649 5649 5649 5650 5650 5651 5652 5653 5654 5654 5654 5654 5654 5654 5655 5656 5657 5658 5658 5659 5660 5662 5663 5664 5665 5666 5666 5667 5668 5669 5670 5670 5672 5672 5673 5675 5676 5677 5678 5680 5681 5682 5683 5684 5685
5647 5648 5648 5648 5648 5648 5648 5648 5648 5648 5648 5648 5648 5648 5648 5648 5648 5648 5647 5647 5647 5647 5647 5647 5647 5647 5646 5647 5647 5647 5648 5649 5650 5651 5652 5652 5652 5652 5652 5652 5653 5654 5655 5656 5656 5657 5658 5660 5662 5662 5663 5663 5664 5664 5665 5666 5667 5668 5669 5670 5671 5673 5674 5675 5676 5678 5679 5680 5681
5644 5644 5644 5644 5644 5644 5644 5644 5644 5645 5645 5645 5645 5645 5645 5645 5645 5645 5644 5644 5644 5644 5644 5644 5644 5644 5644 5644 5644 5644 5645 5645 5646 5647 5648 5648 5649 5649 5649 5650 5650 5651 5652 5652 5653 5654 5654 5655 5657 5659 5660 5660 5660 5661 5661 5662 5662 5663 5664 5665 5666 5668 5669 5671 5672 5673 5675 5676 5677
5640 5640 5640 5640 5640 5640 5640 5640 5641 5641 5641 5641 5641 5641 5642 5642 5642 5641 5641 5641 5641 5641 5641 5641 5641 5641 5641 5641 5641 5642 5642 5642 5643 5643 5644 5645 5645 5645 5646 5646 5647 5647 5648 5649 5650 5651 5652 5652 5653 5654 5656 5657 5657 5657 5658 5658 5658 5659 5660 5660 5662 5663 5665 5666 5667 5669 5670 5671 5673
5636 5636 5636 5636 5636 5636 5637 5637 5637 5637 5637 5637 5637 5637 5637 5637 5637 5638 5638 5637 5637 5637 5637 5637 5637 5637 5638 5638 5638 5638 5639 5639 5639 5640 5640 5641 5641 5642 5642 5642 5643 5643 5644 5645 5646 5647 5648 5649 5650 5650 5652 5653 5655 5655 5655 5656 5656 5656 5656 5656 5657 5658 5660 5662 5663 5664 5665 5667 5668
5632 5632 5632 5632 5632 5632 5632 5632 5632 5632 5632 5632 5632 5633 5633 5633 5633 5633 5634 5634 5634 5634 5634 5634 5634 5634 5634 5634 5634 5635 5635 5636 5636 5637 5637 5637 5637 5638 5638 5638 5639 5639 5640 5641 5642 5643 5644 5646 5646 5647 5647 5649 5650 5652 5652 5653 5654 5654 5654 5654 5653 5654 5656 5657 5658 5660 5661 5662 5663
5628 5628 5628 5628 5628 5628 5628 5628 5628 5628 5628 5628 5628 5628 5628 5628 5629 5629 5629 5630 5630 5630 5630 5630 5630 5630 5630 5630 5631 5631 5631 5632 5632 5633 5633 5634 5634 5634 5634 5635 5635 5636 5636 5637 5637 5639 5640 5641 5642 5643 5644 5644 5645 5647 5648 5649 5649 5650 5651 5651 5651 5652 5652 5653 5654 5655 5656 5657 5658
5624 5624 5624 5624 5623 5623 5623 5623 5624 5624 5624 5624 5624 5624 5624 5624 5624 5624 5625 5625 5625 5625 5626 5626 5626 5627 5627 5627 5627 5627 5627 5627 5628 5629 5629 5630 5630 5631 5631 5631 5632 5632 5632 5632 5633 5634 5635 5636 5637 5639 5640 5640 5641 5642 5642 5643 5644 5645 5646 5647 5647 5648 5649 5651 5651 5652 5652 5653 5654
5620 5620 5620 5619 5619 5619 5619 5619 5619 5619 5619 5619 5619 5619 5619 5619 5620 5620 5620 5620 5620 5621 5621 5622 5622 5622 5622 5622 5623 5623 5623 5623 5624 5624 5625 5625 5626 5627 5627 5628 5628 5628 5628 5628 5629 5629 5630 5631 5632 5633 5635 5636 5636 5637 5638 5638 5639 5640 5641 5642 5643 5644 5645 5646 5647 5649 5649 5649 5650
5615 5615 5615 5615 5615 5615 5614 5614 5614 5614 5614 5614 5614 5615 5615 5615 5615 5615 5615 5615 5616 5616 5616 5617 5617 5617 5618 5618 5619 5619 5619 5619 5619 5620 5620 5621 5622 5622 5623 5624 5624 5625 5625 5625 5625 5625 5626 5626 5627 5628 5629 5630 5631 5632 5633 5634 5634 5635 5636 5637 5638 5640 5641 5642 5643 5645 5646 5647 5647
5611 5611 5610 5610 5610 5610 5610 5610 5610 5610 5610 5610 5610 5610 5610 5610 5610 5610 5610 5611 5611 5611 5612 5612 5612 5612 5613 5613 5614 5614 5615 5615 5615 5616 5616 5616 5617 5617 5618 5619 5620 5621 5621 5622 5622 5622 5622 5622 5622 5623 5624 5625 5626 5627 5627 5628 5629 5630 5631 5632 5633 5635 5637 5638 5639 5640 5641 5642 5643
5606 5606 5606 5605 5605 5605 5605 5605 5605 5605 5605 5605 5605 5605 5605 5605 5605 5605 5605 5605 5606 5606 5607 5607 5607 5607 5608 5608 5609 5609 5610 5610 5611 5611 5612 5612 5612 5613 5614 5614 5615 5616 5617 5617 5617 5618 5618 5618 5618 5619 5620 5620 5621 5622 5622 5623 5624 5625 5627 5628 5629 5631 5632 5633 5634 5635 5636 5637 5638
5601 5601 5601 5600 5600 5600 5600 5600 5600 5599 5599 5599 5599 5600 5599 5599 5599 5599 5599 5600 5600 5601 5601 5602 5602 5602 5603 5603 5603 5604 5605 5605 5606 5606 5607 5607 5608 5608 5609 5609 5610 5611 5612 5612 5613 5613 5614 5614 5615 5615 5616 5616 5617 5617 5618 5619 5620 5620 5621 5622 5624 5625 5627 5628 5628 5629 5629 5630 5632
5594 5594 5595 5595 5595 5595 5594 5594 5594 5594 5594 5594 5594 5594 5594 5594 5594 5594 5594 5594 5595 5595 5596 5596 5597 5597 5597 5597 5598 5598 5599 5600 5600 5601 5602 5602 5603 5603 5604 5605 5605 5606 5606 5607 5607 5608 5609 5610 5610 5611 5612 5612 5613 5613 5614 5615 5615 5616 5617 5618 5619 5620 5620 5621 5622 5623 5623 5624 5625
5588 5588 5588 5588 5588 5588 5588 5588 5588 5588 5588 5589 5589 5589 5589 5589 5589 5588 5588 5588 5589 5589 5590 5590 5591 5591 5592 5592 5592 5593 5593 5594 5594 5595 5596 5597 5597 5598 5599 5599 5600 5601 5601 5602 5602 5603 5604 5605 5606 5607 5607 5608 5609 5609 5610 5611 5611 5612 5612 5613 5614 5615 5615 5616 5617 5617 5618 5619 5619
5581 5581 5581 5581 5581 5581 5581 5582 5582 5582 5582 5582 5582 5583 5583 5583 5583 5583 5583 5583 5583 5583 5584 5584 5585 5585 5586 5586 5587 5587 5587 5588 5589 5589 5590 5591 5592 5592 5593 5594 5594 5595 5596 5597 5597 5598 5599 5600 5601 5602 5602 5603 5604 5605 5606 5607 5607 5608 5608 5609 5610 5610 5611 5612 5612 5613 5613 5614 5615
5573 5573 5573 5573 5573 5574 5574 5574 5574 5574 5575 5575 5576 5576 5576 5577 5577 5577 5577 5577 5577 5578 5578 5578 5579 5579 5580 5580 5581 5581 5582 5582 5583 5583 5584 5585 5585 5586 5587 5588 5589 5589 5590 5591 5592 5592 5593 5594 5595 5596 5597 5598 5599 5600 5601 5602 5603 5604 5604 5605 5605 5606 5607 5607 5608 5609 5610 5610 5611
5566 5566 5566 5566 5566 5566 5566 5567 5567 5567 5567 5567 5568 5568 5569 5569 5570 5570 5571 5571 5571 5572 5572 5572 5573 5573 5573 5574 5575 5575 5576 5576 5577 5577 5578 5578 5579 5580 5581 5582 5582 5583 5584 5585 5586 5587 5588 5589 5590 5591 5592 5593 5594 5595 5596 5597 5598 5599 5600 5600 5601 5602 5602 5603 5604 5604 5605 5606 5607
5559 5559 5559 5559 5559 5559 5559 5559 5559 5560 5560 5560 5560 5561 5561 5562 5562 5563 5563 5564 5564 5565 5565 5566 5567 5567 5567 5568 5568 5569 5569 5570 5571 5571 5572 5572 5573 5574 5575 5575 5576 5577 5577 5578 5579 5581 5582 5583 5584 5585 5586 5587 5588 5589 5590 5592 5593 5594 5595 5596 5597 5597 5598 5598 5599 5600 5601 5602 5602
5552 5552 5552 5552 5551 5551 5551 5551 5552 5552 5552 5552 5553 5553 5553 5554 5554 5555 5556 5556 5557 5557 5558 5559 5560 5560 5561 5561 5562 5562 5563 5564 5564 5565 5565 5566 5567 5568 5568 5569 5570 5571 5571 5572 5573 5574 5575 5577 5577 5579 5580 5581 5582 5584 5585 5586 5587 5588 5589 5590 5592 5592 5593 5594 5595 5595 5596 5597 5597
5546 5546 5545 5545 5544 5544 5544 5544 5544 5544 5544 5545 5545 5546 5546 5546 5547 5547 5548 5548 5549 5550 5551 5552 5552 5553 5554 5555 5555 5556 5557 5557 5558 5558 5559 5560 5561 5561 5562 5563 5564 5564 5565 5565 5566 5567 5569 5570 5571 5572 5573 5575 5576 5578 5579 5580 5582 5583 5584 5585 5586 5587 5588 5589 5590 5591 5591 5592 5593
5539 5538 5538 5537 5537 5537 5537 5537 5537 5537 5537 5537 5537 5538 5538 5539 5539 5539 5540 5540 5541 5542 5542 5543 5544 5546 5547 5547 5548 5549 5550 5551 5551 5552 5552 5553 5554 5555 5556 5556 5557 5558 5558 5559 5560 5561 5562 5563 5564 5565 5567 5568 5570 5571 5573 5574 5576 5577 5578 5579 5581 5582 5583 5584 5585 5585 5586 5587 5588
5531 5531 5530 5530 5530 5530 5529 5529 5529 5529 5530 5530 5530 5530 5531 5531 5532 5532 5532 5532 5533 5534 5534 5535 5536 5537 5538 5539 5540 5541 5542 5543 5544 5545 5546 5547 5547 5548 5549 5550 5550 5551 5552 5552 5553 5554 5555 5556 5557 5559 5560 5562 5563 5565 5566 5567 5569 5571 5572 5574 5575 5576 5577 5578 5579 5580 5581 5582 5583
5524 5523 5523 5522 5522 5522 5522 5522 5522 5522 5522 5522 5523 5523 5524 5524 5525 5525 5525 5525 5526 5526 5527 5527 5528 5529 5530 5531 5532 5533 5534 5536 5537 5538 5539 5540 5541 5542 5542 5543 5544 5545 5545 5546 5547 5548 5549 5550 5551 5552 5553 5555 5557 5558 5560 5561 5563 5564 5566 5567 5569 5570 5571 5572 5573 5575 5576 5577 5577
5517 5516 5516 5515 5515 5514 5514 5513 5513 5513 5513 5514 5514 5515 5516 5517 5517 5518 5518 5519 5519 5519 5519 5519 5520 5521 5522 5522 5523 5524 5526 5527 5528 5530 5532 5533 5534 5535 5535 5536 5537 5538 5538 5539 5540 5541 5542 5543 5544 5545 5547 5548 5550 5551 5553 5555 5556 5558 5559 5561 5562 5564 5565 5566 5567 5569 5570 5571 5572
5509 5509 5508 5508 5507 5507 5507 5506 5505 5505 5505 5505 5505 5505 5506 5507 5508 5509 5511 5512 5513 5513 5513 5513 5513 5514 5514 5514 5515 5516 5517 5518 5520 5521 5523 5525 5526 5527 5528 5529 5530 5531 5532 5532 5533 5534 5535 5537 5537 5539 5540 5541 5543 5545 5546 5548 5550 5551 5553 5554 5556 5557 5558 5560 5561 5562 5564 5565 5566
5502 5501 5501 5500 5500 5499 5499 5498 5498 5497 5497 5497 5497 5497 5497 5497 5497 5498 5500 5502 5504 5506 5507 5508 5508 5507 5507 5507 5507 5508 5509 5510 5511 5513 5514 5516 5517 5519 5521 5522 5523 5524 5525 5526 5527 5527 5528 5530 5531 5532 5533 5534 5536 5537 5539 5541 5543 5544 5546 5547 5549 5550 5552 5553 5555 5556 5557 5559 5560
5494 5493 5493 5492 5492 5492 5491 5491 5490 5490 5490 5489 5489 5489 5488 5488 5488 5488 5489 5490 5492 5494 5497 5500 5501 5501 5501 5500 5500 5500 5501 5502 5503 5504 5506 5507 5509 5511 5513 5515 5516 5517 5517 5518 5520 5521 5522 5523 5524 5525 5526 5527 5529 5531 5532 5534 5536 5538 5539 5541 5542 5544 5545 5547 5548 5549 5551 5552 5553
5486 5485 5485 5485 5484 5484 5483 5483 5482 5482 5482 5482 5482 5481 5481 5481 5481 5481 5481 5481 5482 5483 5485 5487 5491 5493 5494 5494 5494 5494 5493 5494 5495 5496 5498 5499 5500 5502 5504 5507 5508 5509 5510 5511 5512 5513 5515 5516 5517 5518 5519 5520 5522 5524 5526 5527 5529 5531 5533 5534 5536 5537 5539 5540 5542 5543 5544 5546 5547
5477 5477 5477 5476 5476 5476 5475 5475 5474 5474 5474 5474 5474 5473 5473 5473 5473 5473 5473 5473 5473 5474 5475 5476 5478 5482 5485 5487 5488 5487 5487 5487 5487 5488 5490 5491 5492 5494 5496 5497 5499 5501 5502 5504 5505 5506 5507 5508 5510 5511 5512 5513 5515 5517 5519 5521 5522 5524 5526 5528 5530 5531 5532 5534 5535 5537 5538 5539 5541
5469 5468 5468 5467 5467 5467 5467 5467 5466 5466 5466 5466 5466 5466 5466 5466 5466 5465 5465 5465 5466 5467 5467 5467 5468 5470 5473 5476 5479 5480 5481 5481 5480 5481 5482 5483 5485 5486 5487 5489 5491 5493 5495 5496 5497 5498 5500 5501 5502 5504 5505 5506 5508 5510 5512 5513 5516 5517 5520 5522 5523 5525 5526 5527 5529 5530 5532 5533 5535
5460 5459 5459 5458 5458 5458 5458 5458 5457 5457 5457 5457 5457 5457 5457 5457 5457 5457 5457 5457 5458 5458 5459 5459 5460 5461 5462 5464 5467 5471 5473 5474 5474 5474 5475 5476 5477 5478 5480 5481 5483 5485 5487 5488 5489 5490 5492 5493 5495 5496 5497 5499 5501 5502 5504 5506 5508 5511 5513 5515 5517 5518 5520 5521 5522 5524 5525 5527 5528
5451 5450 5450 5449 5449 5449 5449 5449 5449 5449 5449 5449 5449 5449 5449 5449 5449 5449 5449 5449 5450 5450 5451 5451 5452 5453 5454 5454 5456 5459 5463 5466 5467 5468 5468 5468 5469 5470 5472 5473 5475 5477 5479 5481 5482 5483 5484 5485 5487 5488 5490 5491 5493 5495 5497 5499 5501 5504 5506 5508 5510 5512 5513 5515 5516 5517 5519 5521 5522
5443 5442 5441 5440 5440 5440 5440 5440 5440 5440 5440 5440 5440 5440 5441 5441 5441 5441 5441 5441 5441 5442 5442 5443 5445 5446 5446 5446 5447 5449 5452 5455 5458 5460 5461 5462 5462 5463 5464 5466 5468 5470 5472 5473 5474 5476 5477 5478 5479 5480 5482 5483 5485 5487 5489 5492 5494 5497 5499 5501 5503 5505 5507 5508 5509 5511 5513 5514 5516
5435 5434 5433 5432 5432 5431 5431 5431 5431 5431 5431 5431 5431 5431 5432 5432 5432 5432 5432 5432 5433 5433 5434 5435 5436 5437 5438 5438 5440 5441 5442 5445 5448 5451 5453 5454 5455 5455 5457 5458 5460 5462 5464 5466 5467 5468 5469 5471 5472 5473 5474 5475 5477 5479 5482 5484 5487 5489 5492 5494 5496 5498 5499 5501 5503 5504 5506 5508 5509
5427 5427 5425 5424 5423 5423 5423 5422 5422 5422 5422 5422 5422 5422 5422 5422 5423 5423 5423 5424 5424 5425 5425 5426 5427 5429 5430 5431 5432 5433 5434 5436 5438 5441 5443 5445 5447 5448 5450 5451 5452 5454 5457 5458 5460 5461 5462 5463 5465 5466 5467 5468 5469 5471 5474 5476 5479 5482 5484 5486 5488 5490 5492 5494 5496 5498 5500 5502 5503